Weather History for KCAD - February, 2013

Change the Weather History Date:

Monday, February 18, 2013

  Actual Average (KTVC) Record (KTVC)
Temperature  
Mean Temperature 28 °F 23 °F  
Max Temperature 41 °F 31 °F 57 °F (1994)
Min Temperature 16 °F 15 °F -26 °F (1979)
Degree Days  
Heating Degree Days 36 42  
Month to date heating degree days 777  
Since 1 July heating degree days 4933  
Moisture  
Dew Point 19 °F    
Average Humidity 66    
Maximum Humidity 90    
Minimum Humidity 53    
Precipitation  
Precipitation 0.00 in 0.05 in 0.55 in (1976)
Month to date precipitation 0.97  
Year to date precipitation 3.79  
Sea Level Pressure  
Sea Level Pressure 29.74 in    
Wind  
Wind Speed 10 mph (SSE)    
Max Wind Speed 17 mph    
Max Gust Speed 25 mph    
Visibility 9 miles    
Events Rain    
T = Trace of Precipitation, MM = Missing Value Source: NWS Daily Summary

Daily Weather History Graph

Daily Weather History Graph

Search for Another Location

Airport or City:

Trip Planner

Search our weather history database for the weather conditions in past years. The results will help you decide how hot, cold, wet, or windy it might be!

Date:

Astronomy

Feb. 18, 2013 Rise Set
Actual Time 7:36 AM EST 6:15 PM EST
Civil Twilight 7:06 AM EST 6:45 PM EST
Nautical Twilight 6:33 AM EST 7:18 PM EST
Astronomical Twilight 5:59 AM EST 7:52 PM EST
Moon 11:54 AM EST (2/18) 2:21 AM EST (2/18)
Length of Visible Light 11h 38m
Length of Day
10h 39m
First Quarter, 58% of the Moon is Illuminated
Feb 18
First Quarter
Feb 25
Full
Mar 4
Last Quarter
Mar 11
New
Mar 19
First Quarter

Hourly Weather History & Observations

Time (EST) Temp. Windchill Dew Point Humidity Pressure Visibility Wind Dir Wind Speed Gust Speed Precip Events Conditions
12:15 AM 16.7 °F 9.6 °F 6.8 °F 65% 30.03 in 10.0 mi SSE 4.6 mph - N/A   Mostly Cloudy
12:35 AM 16.3 °F 5.7 °F 7.0 °F 67% 30.03 in 10.0 mi SSE 8.1 mph - N/A   Scattered Clouds
12:54 AM 16.3 °F 7.8 °F 7.2 °F 67% 30.03 in 10.0 mi SSE 5.8 mph - N/A   Mostly Cloudy
1:15 AM 17.6 °F 7.3 °F 7.7 °F 65% 30.03 in 10.0 mi SSE 8.1 mph - N/A   Overcast
1:35 AM 18.1 °F 8.9 °F 8.1 °F 65% 30.02 in 10.0 mi SSE 6.9 mph - N/A   Overcast
1:54 AM 18.9 °F 8.8 °F 8.6 °F 64% 30.02 in 10.0 mi South 8.1 mph - N/A   Overcast
2:15 AM 18.9 °F 8.8 °F 8.6 °F 64% 30.02 in 10.0 mi South 8.1 mph - N/A   Overcast
2:35 AM 18.9 °F 7.2 °F 8.2 °F 63% 30.01 in 10.0 mi SSE 10.4 mph - N/A   Overcast
2:54 AM 18.9 °F 9.8 °F 8.2 °F 63% 30.01 in 10.0 mi South 6.9 mph - N/A   Overcast
3:15 AM 18.9 °F 8.0 °F 7.9 °F 62% 30.00 in 10.0 mi SSE 9.2 mph - N/A   Overcast
3:35 AM 18.9 °F 7.2 °F 7.7 °F 62% 29.99 in 10.0 mi SSE 10.4 mph 16.1 mph N/A   Overcast
3:54 AM 18.9 °F 9.8 °F 7.7 °F 62% 29.98 in 10.0 mi SE 6.9 mph - N/A   Mostly Cloudy
4:15 AM 18.9 °F 9.8 °F 8.4 °F 64% 29.98 in 10.0 mi SE 6.9 mph - N/A   Mostly Cloudy
4:35 AM 18.9 °F 8.8 °F 9.0 °F 65% 29.97 in 10.0 mi SE 8.1 mph - N/A   Overcast
4:55 AM 18.7 °F 9.5 °F 9.1 °F 66% 29.97 in 10.0 mi SE 6.9 mph - N/A   Overcast
5:15 AM 18.5 °F 10.4 °F 9.3 °F 67% 29.96 in 10.0 mi SE 5.8 mph - N/A   Overcast
5:34 AM 18.9 °F 8.0 °F 9.5 °F 67% 29.94 in 10.0 mi SE 9.2 mph - N/A   Overcast
5:55 AM 18.9 °F 6.5 °F 9.3 °F 66% 29.92 in 10.0 mi SE 11.5 mph - N/A   Overcast
6:15 AM 18.9 °F 6.5 °F 9.5 °F 67% 29.90 in 10.0 mi SE 11.5 mph - N/A   Overcast
6:34 AM 18.9 °F 6.5 °F 9.5 °F 67% 29.89 in 10.0 mi SE 11.5 mph - N/A   Overcast
6:55 AM 18.9 °F 7.2 °F 9.7 °F 67% 29.87 in 10.0 mi SE 10.4 mph 18.4 mph N/A   Overcast
7:15 AM 18.9 °F 5.9 °F 10.0 °F 69% 29.85 in 10.0 mi SE 12.7 mph - N/A   Overcast
7:34 AM 18.9 °F 7.2 °F 10.0 °F 69% 29.86 in 10.0 mi SE 10.4 mph 16.1 mph N/A   Overcast
7:55 AM 18.9 °F 7.2 °F 9.7 °F 67% 29.84 in 10.0 mi SE 10.4 mph - N/A   Overcast
8:15 AM 19.6 °F 8.9 °F 10.2 °F 67% 29.84 in 10.0 mi SSE 9.2 mph 16.1 mph N/A   Scattered Clouds
8:34 AM 21.2 °F 7.8 °F 11.3 °F 66% 29.83 in 10.0 mi SE 15.0 mph - N/A   Clear
9:15 AM 21.4 °F 8.5 °F 11.1 °F 65% 29.81 in 10.0 mi SE 13.8 mph - N/A   Clear
9:34 AM 22.6 °F 10.1 °F 11.5 °F 62% 29.80 in 10.0 mi SSE 13.8 mph 19.6 mph N/A   Clear
9:55 AM 23.9 °F 12.3 °F 12.7 °F 62% 29.79 in 10.0 mi SE 12.7 mph 18.4 mph N/A   Clear
10:15 AM 23.9 °F 14.2 °F 12.2 °F 61% 29.78 in 10.0 mi SE 9.2 mph 20.7 mph N/A   Clear
10:34 AM 25.3 °F 14.7 °F 13.1 °F 60% 29.78 in 10.0 mi SSE 11.5 mph - N/A   Clear
10:55 AM 27.3 °F 17.7 °F 14.4 °F 58% 29.77 in 10.0 mi SE 10.4 mph 17.3 mph N/A   Clear
11:15 AM 28.9 °F 18.6 °F 15.6 °F 58% 29.76 in 10.0 mi SSE 12.7 mph 18.4 mph N/A   Clear
11:34 AM 31.5 °F 22.3 °F 17.2 °F 56% 29.75 in 10.0 mi SSE 11.5 mph 19.6 mph N/A   Clear
11:55 AM 31.5 °F 22.3 °F 16.9 °F 55% 29.74 in 10.0 mi SE 11.5 mph 19.6 mph N/A   Clear
12:15 PM 32.2 °F 21.8 °F 17.6 °F 55% 29.73 in 10.0 mi SSE 15.0 mph - N/A   Clear
12:34 PM 33.8 °F 23.5 °F 18.9 °F 54% 29.72 in 10.0 mi South 16.1 mph 20.7 mph N/A   Clear
12:55 PM 34.0 °F 25.0 °F 18.9 °F 54% 29.71 in 10.0 mi SSE 12.7 mph 20.7 mph N/A   Clear
1:15 PM 36.1 °F 26.5 °F 21.0 °F 54% 29.70 in 10.0 mi SSE 16.1 mph 20.7 mph N/A   Clear
1:34 PM 36.1 °F 27.7 °F 21.0 °F 54% 29.69 in 10.0 mi South 12.7 mph 20.7 mph N/A   Clear
1:55 PM 36.1 °F 26.5 °F 20.3 °F 53% 29.67 in 10.0 mi SSE 16.1 mph - N/A   Clear
2:15 PM 37.4 °F 28.9 °F 22.1 °F 54% 29.66 in 10.0 mi SSE 13.8 mph 17.3 mph N/A   Clear
2:35 PM 38.7 °F 30.5 °F 23.0 °F 53% 29.65 in 10.0 mi SSE 13.8 mph 20.7 mph N/A   Clear
2:55 PM 38.7 °F 30.5 °F 23.4 °F 54% 29.64 in 10.0 mi SSE 13.8 mph 18.4 mph N/A   Clear
3:14 PM 38.7 °F 30.1 °F 23.7 °F 55% 29.64 in 10.0 mi South 15.0 mph - N/A   Clear
3:35 PM 38.7 °F 31.4 °F 23.4 °F 54% 29.64 in 10.0 mi SSE 11.5 mph 19.6 mph N/A   Clear
3:55 PM 38.7 °F 29.5 °F 24.1 °F 56% 29.63 in 10.0 mi South 17.3 mph - N/A   Clear
4:14 PM 38.7 °F 30.5 °F 24.1 °F 56% 29.62 in 10.0 mi SSE 13.8 mph 17.3 mph N/A   Clear
4:35 PM 38.7 °F 31.4 °F 24.4 °F 57% 29.62 in 10.0 mi SSE 11.5 mph - N/A   Scattered Clouds
4:55 PM 38.7 °F 31.4 °F 25.0 °F 58% 29.61 in 10.0 mi SSE 11.5 mph - N/A   Mostly Cloudy
5:14 PM 38.7 °F 32.9 °F 25.5 °F 59% 29.60 in 10.0 mi SE 8.1 mph - N/A   Overcast
5:35 PM 38.7 °F 32.4 °F 26.4 °F 61% 29.60 in 10.0 mi SSE 9.2 mph - N/A   Overcast
5:55 PM 38.5 °F 31.6 °F 26.6 °F 62% 29.60 in 10.0 mi SSE 10.4 mph 18.4 mph N/A   Overcast
6:14 PM 36.1 °F 28.7 °F 25.0 °F 64% 29.59 in 10.0 mi SE 10.4 mph 16.1 mph N/A   Overcast
6:35 PM 36.1 °F 28.2 °F 25.2 °F 64% 29.58 in 10.0 mi SE 11.5 mph 16.1 mph N/A   Overcast
6:55 PM 36.1 °F 28.2 °F 25.5 °F 65% 29.58 in 10.0 mi SE 11.5 mph - N/A   Overcast
7:14 PM 36.1 °F 28.7 °F 25.7 °F 66% 29.57 in 10.0 mi SE 10.4 mph - N/A   Overcast
7:35 PM 36.1 °F 28.7 °F 26.2 °F 67% 29.56 in 10.0 mi SE 10.4 mph 17.3 mph N/A   Overcast
7:55 PM 36.1 °F 28.7 °F 27.3 °F 70% 29.55 in 10.0 mi SE 10.4 mph - N/A   Overcast
8:14 PM 36.1 °F 28.2 °F 31.8 °F 84% 29.54 in 2.0 mi SE 11.5 mph - N/A Rain Light Rain
8:35 PM 36.1 °F 28.7 °F 32.9 °F 88% 29.52 in 1.5 mi SE 10.4 mph 18.4 mph N/A Rain Light Rain
8:54 PM 36.1 °F 28.7 °F 33.1 °F 89% 29.50 in 4.0 mi SE 10.4 mph - N/A   Drizzle
9:15 PM 36.1 °F 28.7 °F 33.1 °F 89% 29.49 in 5.0 mi SE 10.4 mph - N/A   Drizzle
9:35 PM 36.1 °F 29.3 °F 33.1 °F 89% 29.48 in 2.0 mi SE 9.2 mph - N/A Rain Light Rain
9:54 PM 37.4 °F 30.8 °F 34.7 °F 90% 29.47 in 4.0 mi SSE 9.2 mph - N/A   Drizzle
10:15 PM 38.7 °F 32.9 °F 36.0 °F 90% 29.46 in 3.0 mi SE 8.1 mph 17.3 mph N/A Rain Light Rain
10:35 PM 38.7 °F 30.9 °F 36.0 °F 90% 29.45 in 3.0 mi SSE 12.7 mph - N/A   Drizzle
10:54 PM 38.7 °F 31.8 °F 36.0 °F 90% 29.43 in 4.0 mi SSE 10.4 mph - N/A Rain Light Rain
11:15 PM 38.7 °F 31.4 °F 36.0 °F 90% 29.41 in 4.0 mi SSE 11.5 mph 16.1 mph N/A Rain Rain
11:35 PM 41.2 °F 33.7 °F 38.3 °F 89% 29.39 in 10.0 mi South 13.8 mph 23.0 mph N/A Rain Light Rain
11:54 PM 41.2 °F 32.7 °F 37.8 °F 88% 29.38 in 7.0 mi South 17.3 mph 25.3 mph N/A   Drizzle